User: anonymous
Location: NJAA Observatory
(40.6819°N, 74.8979°W)
Time: 23:11:59
(UTC-04:00)
Language:

Cosmos 2082 - Orbit

View from above orbital plane
View from above orbital plane
View from above satellite
View from above satellite

Ground track
Ground track

The orbit data is extracted from the following two-line orbital elements,

1 20624U 90046A   14293.82423877 -.00000057  00000-0 -50413-5 0   503
2 20624 071.0419 085.4355 0012950 060.1492 042.3793 14.14104362260010
Epoch (UTC): 20 October 2014 19:46:54
Eccentricity: 0.0012950
inclination: 71.0419°
perigee height: 836 km
apogee height: 855 km
right ascension of ascending node: 85.4355°
argument of perigee: 60.1492°
revolutions per day: 14.14104362
mean anomaly at epoch: 42.3793°
orbit number at epoch: 26001

The dashed part of the orbit path shows where the satellite is in the earth's shadow,  

DLR